Location: Taipo
(41.0000°S, 175.9500°E)
Time: 12:47:00
(UTC+00:00)

SJ-12 - Visible Passes

Search period start: 15 May 2025 00:00
Search period end: 25 May 2025 00:00
Orbit: 525 x 536 km, 97.8° (Epoch: 15 May)

Date Brightness Start Highest point End Pass type
(mag) Time Alt. Az. Time Alt. Az. Time Alt. Az.
15 May 4.6 05:48:34 10° SSE 05:52:04 30° E 05:55:31 10° NNE visible
15 May 6.4 07:23:21 10° SSW 07:26:10 19° WSW 07:28:57 10° WNW visible
15 May 6.5 16:31:23 10° ENE 16:34:02 18° ESE 16:36:19 12° SSE visible
15 May 4.4 18:04:28 10° NNW 18:08:04 34° W 18:11:36 11° SSW visible
16 May 5.0 05:38:36 10° SE 05:41:46 23° E 05:44:53 10° NNE visible
16 May 6.0 07:12:48 10° SSW 07:16:01 25° WSW 07:19:11 10° NW visible
16 May 6.8 16:21:53 10° E 16:23:53 14° ESE 16:25:48 10° SE visible
16 May 4.0 17:54:01 10° N 17:57:47 46° W 18:01:05 13° SSW visible
17 May 5.5 07:02:19 10° S 07:05:49 32° WSW 07:09:17 10° NW visible
17 May 7.0 16:12:57 10° ESE 16:13:45 11° ESE 16:14:35 10° SE visible
17 May 3.7 17:43:38 10° N 17:47:31 63° W 17:50:34 16° SSW visible
18 May 5.0 06:51:54 10° S 06:55:38 42° WSW 06:59:17 10° NW visible
18 May 3.7 17:33:20 10° NNE 17:37:15 86° WNW 17:40:03 19° SSW visible
19 May 4.4 06:41:33 10° S 06:45:24 57° WSW 06:49:11 10° NNW visible
19 May 4.0 17:23:06 10° NNE 17:27:00 71° ESE 17:29:31 21° S visible
20 May 3.9 06:31:13 10° S 06:35:09 78° WSW 06:39:00 10° NNW visible
20 May 4.5 17:12:56 10° NNE 17:16:45 52° ESE 17:19:00 23° S visible
20 May 5.8 18:50:07 10° WNW 18:51:22 11° W 18:52:36 10° WSW visible
21 May 3.6 06:20:57 10° SSE 06:24:52 78° ENE 06:28:43 10° N visible
21 May 5.1 17:02:51 10° NE 17:06:30 39° ESE 17:08:28 23° SSE visible
21 May 5.5 18:38:41 10° NW 18:40:59 15° W 18:43:17 10° SW visible
22 May 3.8 06:10:42 10° SSE 06:14:34 57° E 06:18:21 10° N visible
22 May 6.9 07:47:08 10° SW 07:48:21 11° WSW 07:49:35 10° W visible
22 May 5.6 16:52:51 10° NE 16:56:16 29° ESE 16:57:56 21° SSE visible
22 May 5.2 18:27:42 10° NW 18:30:36 20° W 18:33:14 11° SW visible
23 May 4.2 06:00:31 10° SSE 06:04:14 41° E 06:07:53 10° N visible
23 May 6.7 07:35:59 10° SSW 07:38:10 15° WSW 07:40:21 10° W visible
23 May 6.1 16:42:56 10° ENE 16:46:02 23° ESE 16:47:24 19° SE visible
23 May 4.8 18:16:56 10° NNW 18:20:13 26° W 18:22:42 15° SW visible
24 May 4.6 05:50:23 10° SSE 05:53:53 31° E 05:57:20 10° NNE visible
24 May 6.4 07:25:12 10° SSW 07:27:58 19° WSW 07:30:42 10° WNW visible
24 May 6.4 16:33:09 10° ENE 16:35:48 18° ESE 16:36:52 16° SE visible
24 May 4.4 18:06:18 10° NNW 18:09:51 34° W 18:12:10 18° SW visible
